When you browse on this site, cookies collect data to enhance your experience and personalize the content and advertising you see.
Visit our Privacy Policy to learn more. By continuing to use the site, you agree to this use of cookies and data.
  • en France
  • Liste des pays
  • À 7 jours
  • Température de l'eau
  • Carte satellitaire
  • Carte météo
  • Widgets météo
  • user-avatar
    Se connecter

    Météo par heure à Kavarna

    Ce jour, 27 Mai, Lundi

    Heure Température Précipitation Vent Pression Humidité
    00:00 +18°C° 0 mm 2 m/s 762 mmHg 80%
    01:00 +17°C° 0 mm 2 m/s 762 mmHg 79%
    02:00 +17°C° 0 mm 2 m/s 761 mmHg 79%
    03:00 +17°C° 0 mm 2 m/s 761 mmHg 79%
    04:00 +17°C° 0 mm 2 m/s 761 mmHg 80%
    05:00 +17°C° 0 mm 2 m/s 761 mmHg 80%
    06:00 +19°C° 0 mm 2 m/s 762 mmHg 77%
    07:00 +20°C° 0 mm 2 m/s 762 mmHg 74%
    08:00 +21°C° 0 mm 2 m/s 762 mmHg 71%
    09:00 +23°C° 0 mm 2 m/s 762 mmHg 69%
    10:00 +22°C° 0 mm 3 m/s 762 mmHg 66%
    11:00 +24°C° 0 mm 3 m/s 762 mmHg 64%
    12:00 +24°C° 0 mm 3 m/s 762 mmHg 64%
    13:00 +23°C° 0 mm 4 m/s 762 mmHg 64%
    14:00 +23°C° 0 mm 4 m/s 762 mmHg 64%
    15:00 +22°C° 0 mm 4 m/s 761 mmHg 66%
    16:00 +22°C° 0 mm 4 m/s 761 mmHg 69%
    17:00 +21°C° 0 mm 4 m/s 761 mmHg 71%
    18:00 +20°C° 0 mm 4 m/s 761 mmHg 76%
    19:00 +19°C° 0 mm 3 m/s 761 mmHg 82%
    20:00 +18°C° 0 mm 3 m/s 761 mmHg 87%
    21:00 +18°C° 0 mm 3 m/s 761 mmHg 88%
    22:00 +17°C° 0 mm 3 m/s 761 mmHg 89%
    23:00 +17°C° 0 mm 3 m/s 761 mmHg 90%

    Demain, 28 Mai, Mardi

    Heure Température Précipitation Vent Pression Humidité
    00:00 +17°C° 0 mm 3 m/s 760 mmHg 90%
    01:00 +17°C° 0 mm 3 m/s 760 mmHg 91%
    02:00 +17°C° 0 mm 3 m/s 760 mmHg 91%
    03:00 +17°C° 0 mm 3 m/s 759 mmHg 91%
    04:00 +17°C° 0 mm 3 m/s 759 mmHg 91%
    05:00 +17°C° 0 mm 3 m/s 759 mmHg 90%
    06:00 +18°C° 0 mm 3 m/s 759 mmHg 86%
    07:00 +19°C° 0 mm 3 m/s 759 mmHg 82%
    08:00 +20°C° 0 mm 4 m/s 759 mmHg 79%
    09:00 +21°C° 0 mm 3 m/s 758 mmHg 76%
    10:00 +22°C° 0 mm 3 m/s 758 mmHg 73%
    11:00 +24°C° 0 mm 3 m/s 758 mmHg 70%
    12:00 +24°C° 0 mm 3 m/s 758 mmHg 69%
    13:00 +23°C° 0 mm 4 m/s 758 mmHg 68%
    14:00 +23°C° 0 mm 4 m/s 757 mmHg 67%
    15:00 +23°C° 0 mm 4 m/s 757 mmHg 69%
    16:00 +22°C° 0 mm 4 m/s 756 mmHg 71%
    17:00 +22°C° 0 mm 4 m/s 756 mmHg 73%
    18:00 +21°C° 0 mm 4 m/s 756 mmHg 77%
    19:00 +20°C° 0 mm 4 m/s 756 mmHg 81%
    20:00 +19°C° 0 mm 4 m/s 756 mmHg 85%
    21:00 +19°C° 0 mm 4 m/s 756 mmHg 85%
    22:00 +19°C° 0 mm 5 m/s 756 mmHg 84%
    23:00 +19°C° 0 mm 5 m/s 756 mmHg 84%

    Après-demain, 29 Mai, Mercredi

    Heure Température Précipitation Vent Pression Humidité
    00:00 +19°C° 0 mm 5 m/s 756 mmHg 83%
    01:00 +19°C° 0 mm 5 m/s 756 mmHg 82%
    02:00 +19°C° 0 mm 5 m/s 756 mmHg 82%
    03:00 +17°C° 0 mm 5 m/s 756 mmHg 80%
    04:00 +17°C° 0 mm 5 m/s 756 mmHg 79%
    05:00 +16°C° 0 mm 5 m/s 756 mmHg 77%
    06:00 +19°C° 0 mm 4 m/s 756 mmHg 75%
    07:00 +20°C° 0 mm 4 m/s 756 mmHg 72%
    08:00 +22°C° 0 mm 4 m/s 756 mmHg 70%
    09:00 +23°C° 0 mm 4 m/s 756 mmHg 66%
    10:00 +25°C° 0 mm 4 m/s 757 mmHg 63%
    11:00 +27°C° 0 mm 4 m/s 757 mmHg 60%
    12:00 +27°C° 0 mm 4 m/s 757 mmHg 59%
    13:00 +27°C° 0 mm 5 m/s 757 mmHg 58%
    14:00 +27°C° 0 mm 5 m/s 756 mmHg 57%
    15:00 +27°C° 0 mm 5 m/s 756 mmHg 60%
    16:00 +26°C° 0 mm 5 m/s 756 mmHg 63%
    17:00 +25°C° 0 mm 5 m/s 756 mmHg 66%
    18:00 +23°C° 0 mm 5 m/s 756 mmHg 68%
    19:00 +22°C° 0 mm 4 m/s 756 mmHg 71%
    20:00 +21°C° 0 mm 4 m/s 757 mmHg 73%
    21:00 +21°C° 0 mm 3 m/s 757 mmHg 74%
    22:00 +21°C° 0 mm 3 m/s 757 mmHg 75%
    23:00 +21°C° 0 mm 3 m/s 758 mmHg 75%

    30 Mai, Jeudi

    Heure Température Précipitation Vent Pression Humidité
    00:00 +20°C° 0 mm 3 m/s 758 mmHg 76%
    01:00 +20°C° 0 mm 3 m/s 758 mmHg 77%
    02:00 +20°C° 0 mm 3 m/s 758 mmHg 77%
    03:00 +19°C° 0 mm 3 m/s 758 mmHg 78%
    04:00 +19°C° 0 mm 2 m/s 758 mmHg 78%
    05:00 +19°C° 0 mm 2 m/s 758 mmHg 78%
    06:00 +21°C° 0 mm 1 m/s 758 mmHg 74%
    07:00 +22°C° 0 mm 1 m/s 758 mmHg 69%
    08:00 +22°C° 0 mm 0 m/s 758 mmHg 65%
    09:00 +25°C° 0 mm 1 m/s 758 mmHg 61%
    10:00 +26°C° 0 mm 2 m/s 758 mmHg 58%
    11:00 +26°C° 0 mm 2 m/s 758 mmHg 54%
    12:00 +26°C° 0 mm 3 m/s 758 mmHg 56%
    13:00 +26°C° 0 mm 3 m/s 758 mmHg 58%
    14:00 +25°C° 0 mm 4 m/s 758 mmHg 59%
    15:00 +25°C° 0 mm 3 m/s 757 mmHg 61%
    16:00 +24°C° 0 mm 3 m/s 757 mmHg 62%
    17:00 +24°C° 0 mm 3 m/s 757 mmHg 64%
    18:00 +21°C° 0 mm 2 m/s 757 mmHg 67%
    19:00 +20°C° 0 mm 2 m/s 757 mmHg 71%
    20:00 +20°C° 0 mm 1 m/s 757 mmHg 74%
    21:00 +20°C° 0 mm 1 m/s 757 mmHg 73%
    22:00 +20°C° 0 mm 1 m/s 757 mmHg 72%
    23:00 +20°C° 0 mm 1 m/s 757 mmHg 71%

    31 Mai, Vendredi

    Heure Température Précipitation Vent Pression Humidité
    00:00 +19°C° 0 mm 1 m/s 757 mmHg 73%
    01:00 +18°C° 0 mm 2 m/s 757 mmHg 75%
    02:00 +18°C° 0 mm 2 m/s 757 mmHg 77%
    03:00 +18°C° 0 mm 3 m/s 757 mmHg 83%
    04:00 +18°C° 0 mm 4 m/s 757 mmHg 88%
    05:00 +17°C° 0 mm 4 m/s 757 mmHg 94%
    06:00 +18°C° 0 mm 4 m/s 757 mmHg 90%
    07:00 +20°C° 0 mm 4 m/s 757 mmHg 85%
    08:00 +21°C° 0 mm 4 m/s 757 mmHg 81%
    09:00 +22°C° 0 mm 3 m/s 757 mmHg 78%
    10:00 +24°C° 0 mm 2 m/s 757 mmHg 74%
    11:00 +25°C° 0 mm 2 m/s 757 mmHg 71%
    12:00 +25°C° 0 mm 1 m/s 756 mmHg 70%
    13:00 +26°C° 0 mm 1 m/s 756 mmHg 69%
    14:00 +26°C° 0 mm 1 m/s 756 mmHg 68%
    15:00 +26°C° 0.4 mm 1 m/s 756 mmHg 69%
    16:00 +26°C° 0.4 mm 1 m/s 755 mmHg 70%
    17:00 +25°C° 0.4 mm 2 m/s 755 mmHg 71%
    18:00 +24°C° 0.6 mm 2 m/s 755 mmHg 76%
    19:00 +23°C° 0.6 mm 2 m/s 755 mmHg 81%
    20:00 +21°C° 0.6 mm 3 m/s 755 mmHg 85%
    21:00 +20°C° 0 mm 3 m/s 755 mmHg 86%
    22:00 +20°C° 0 mm 4 m/s 755 mmHg 87%
    23:00 +19°C° 0 mm 4 m/s 755 mmHg 87%

    1 Juin, Samedi

    Heure Température Précipitation Vent Pression Humidité
    00:00 +19°C° 0.1 mm 5 m/s 755 mmHg 87%
    01:00 +17°C° 0.1 mm 5 m/s 755 mmHg 87%
    02:00 +17°C° 0.1 mm 6 m/s 755 mmHg 86%
    03:00 +16°C° 0 mm 6 m/s 755 mmHg 87%
    04:00 +16°C° 0 mm 6 m/s 755 mmHg 87%
    05:00 +16°C° 0 mm 7 m/s 755 mmHg 87%
    06:00 +17°C° 0 mm 6 m/s 756 mmHg 85%
    07:00 +19°C° 0 mm 6 m/s 756 mmHg 83%
    08:00 +20°C° 0 mm 5 m/s 756 mmHg 81%
    09:00 +21°C° 0 mm 5 m/s 756 mmHg 77%
    10:00 +22°C° 0 mm 4 m/s 756 mmHg 73%
    11:00 +24°C° 0 mm 3 m/s 756 mmHg 69%
    12:00 +24°C° 0.1 mm 3 m/s 757 mmHg 68%
    13:00 +23°C° 0.1 mm 4 m/s 757 mmHg 68%
    14:00 +25°C° 0.1 mm 4 m/s 757 mmHg 68%
    15:00 +23°C° 0.1 mm 5 m/s 757 mmHg 71%
    16:00 +22°C° 0.1 mm 5 m/s 757 mmHg 73%
    17:00 +22°C° 0.1 mm 6 m/s 757 mmHg 75%
    18:00 +20°C° 0 mm 6 m/s 757 mmHg 78%
    19:00 +19°C° 0 mm 6 m/s 758 mmHg 80%
    20:00 +17°C° 0 mm 6 m/s 758 mmHg 82%
    21:00 +16°C° 0 mm 7 m/s 759 mmHg 82%
    22:00 +15°C° 0 mm 7 m/s 759 mmHg 82%
    23:00 +14°C° 0 mm 7 m/s 760 mmHg 82%
    Voir plus